Regional Weather Roundup
Issued by NWS Bismarck, ND

Home | Current Version | Previous Version | Text Only | Print | Product List | Glossary On
Versions: 1 2 3 4 5 6 7 8 9 10 11 12 13 14 15 16 17 18 19 20 21 22 23 24 25 26 27 28 29 30 31 32 33 34 35 36 37 38 39 40 41 42 43 44 45 46 47 48 49 50
000
ASUS43 KBIS 011910
RWRBIS

NWR BROADCAST TEXT
NATIONAL WEATHER SERVICE BISMARCK ND
200 PM CDT WED OCT 01 2014

NOTE: "FAIR" INDICATES FEW OR NO CLOUDS BELOW 12,000 FEET WITH NO
SIGNIFICANT WEATHER AND/OR OBSTRUCTIONS TO VISIBILITY.


CITY           SKY/WX    TMP DP  RH WIND       PRES   REMARKS
WILLISTON      CLOUDY    57  47  69 NW21G26   29.74R
MINOT          CLOUDY    59  48  67 W21G29    29.64R
MINOT AFB      CLOUDY    59  52  78 NW21G28   29.63R
BISMARCK       CLOUDY    60  49  66 W13G23    29.73S
DICKINSON      CLOUDY    54  47  77 W16       29.76S
GARRISON         N/A     60  50  69 W21G28    29.68S
HETTINGER ARPT CLOUDY    51  46  83 W21       29.82S
JAMESTOWN      CLOUDY    60  50  69 W16G29    29.66S
BEACH            N/A     52  48  87 W22       29.82R
CARRINGTON     CLOUDY    59  55  88 W23G31    29.65S
CROSBY         CLOUDY    52  52 100 NW15G29   29.69R
HARVEY         CLOUDY    57  52  82 W20G29    29.63S
HAZEN          CLOUDY    59  48  67 NW15G24   29.72S
LINTON         CLOUDY    59  50  72 W17G25    29.74S
MANDAN         CLOUDY    57  48  72 W21       29.73S
OAKES            N/A     64  54  68 W22G28    29.68F
RUGBY          MOCLDY    57  54  88 W17G25    29.60S
STANLEY        MOCLDY    54  54 100 NW22G31   29.68S
TIOGA          CLOUDY    52  52 100 W17G29    29.73R
WATFORD CITY   MOCLDY    55  48  76 W17G28    29.73R
$$

CITY           SKY/WX    TMP DP  RH WIND       PRES   REMARKS
GRAND FORKS    PTSUNNY   66  52  60 SW18G25   29.58S
GRAND FORKS AF CLOUDY    64  54  68 SW18      29.59S
DEVILS LAKE    CLOUDY    61  50  67 W20       29.58S
FARGO          PTSUNNY   69  53  56 SW17      29.63S
CANDO          CLOUDY    59  50  72 W21G28    29.59R
CAVALIER       MOCLDY    64  54  68 SW15G26   29.54R
GRAFTON        MOCLDY    64  55  72 SW18      29.55F
GWINNER        PTCLDY    66  52  59 W16       29.69S
LANGDON        CLOUDY    59  50  72 W22G31    29.55S
ROLLA          CLOUDY    57  52  82 W10       29.57F
WALHALLA         N/A     63  54  72 W14G31    29.54R
$$

CITY           SKY/WX    TMP DP  RH WIND       PRES   REMARKS
ABERDEEN       MOSUNNY   70  52  52 NW20G25   29.71F
MOBRIDGE       CLOUDY    65  49  56 NW17G25   29.74S
BUFFALO          N/A     52  44  74 NW23      29.81R
RAPID CITY     CLOUDY    56  43  61 N18       29.87S
GLASGOW        PTSUNNY   56  43  61 NW18      29.82F
SIDNEY         CLOUDY    55  46  71 W17G23    29.79S
WOLF POINT     CLOUDY    57  45  64 NW21G29   29.80S
GLENDIVE       PTSUNNY   54  46  76 NW22G30   29.83S
MILES CITY     PTSUNNY   60  38  43 NW20      29.87S
BAKER          CLOUDY    48  44  86 W18G29    29.85S
$$

CITY           SKY/WX    TMP DP  RH WIND       PRES   REMARKS
BILLINGS       MOSUNNY   60  33  36 NW13G23   29.95S
GREAT FALLS    PTSUNNY   56  36  47 SW16      29.94F
REGINA         PTSUNNY   54  46  76 NW22G31   29.66S
ESTEVAN        LGT RAIN  54  52  94 W17G23    29.66R
$$




USA.gov is the U.S. government's official web portal to all federal, state and local government web resources and services.